Location: Orange Harbor Mobile Home Park
(26.6923°N, 81.7937°W)
Time: 07:35:31
(UTC+00:00)

Meteor 1-14 Rocket - Pass Details

Date: 19 September 2020
Orbit: 833 x 919 km, 81.3° (Epoch: 29 October)

Event Time Altitude Azimuth Distance (km) Brightness Sun altitude
Rises 09:36:15 0° 345° (NNW) 3,406 7.3 -22.6°
Reaches altitude 10° 09:38:44 10° 340° (NNW) 2,459 6.5 -22.0°
Maximum altitude 09:44:03 49° 267° (W) 1,068 4.3 -20.9°
Drops below altitude 10° 09:49:20 10° 193° (SSW) 2,432 6.3 -19.7°
Sets 09:51:47 0° 188° (S) 3,364 7.1 -19.2°
